Weather History for Superior, WI

Change the Weather History Date:

Sunday, June 30, 2013

  Actual Average Record
Temperature  
Mean Temperature 64 °F -  
Max Temperature 82 °F 71 °F 96 °F (1963)
Min Temperature 45 °F 50 °F 35 °F (1959)
Degree Days  
Heating Degree Days 2    
Growing Degree Days 14 (Base 50)    
Moisture  
Dew Point 52 °F    
Average Humidity 68    
Maximum Humidity 100    
Minimum Humidity 31    
Precipitation  
Precipitation 0.00 in - - ()
Sea Level Pressure  
Sea Level Pressure 30.07 in    
Wind  
Wind Speed 2 mph (ESE)    
Max Wind Speed 6 mph    
Max Gust Speed -    
Visibility 10 miles    
Events      
Averages and records for this station are not official NWS values.
T = Trace of Precipitation, MM = Missing Value Source: NWS Daily Summary

Daily Weather History Graph

Daily Weather History Graph

Search for Another Location

Airport:

Trip Planner

Search our weather history database for the weather conditions in past years. The results will help you decide how hot, cold, wet, or windy it might be!

Date:

Astronomy

Jun. 30, 2013 Rise Set
Actual Time 5:18 AM CDT 9:05 PM CDT
Civil Twilight 4:39 AM CDT 9:44 PM CDT
Nautical Twilight 3:45 AM CDT 10:37 PM CDT
Astronomical Twilight 2:29 AM CDT 11:53 PM CDT
Moon 12:35 AM CDT (6/30) 2:04 PM CDT (6/30)
Length of Visible Light 17h 05m
Length of Day
15h 47m
Last Quarter, 45% of the Moon is Illuminated
Jun 30
Last Quarter
Jul 8
New
Jul 15
First Quarter
Jul 22
Full
Jul 29
Last Quarter

Hourly Weather History & Observations

Time (CDT) Temp. Dew Point Humidity Pressure Visibility Wind Dir Wind Speed Gust Speed Precip Events Conditions
12:15 AM 50.0 °F 49.5 °F 98% 30.01 in 10.0 mi Calm Calm - N/A   Scattered Clouds
12:35 AM 50.2 °F 49.6 °F 98% 30.01 in 10.0 mi Calm Calm - N/A   Clear
12:55 AM 50.0 °F 49.3 °F 97% 30.01 in 10.0 mi Calm Calm - N/A   Clear
1:15 AM 49.6 °F 49.3 °F 99% 30.01 in 10.0 mi SW 3.5 mph - N/A   Clear
1:35 AM 49.5 °F 48.6 °F 97% 30.02 in 10.0 mi Calm Calm - N/A   Clear
1:55 AM 49.5 °F 48.6 °F 97% 30.02 in 10.0 mi SW 3.5 mph - N/A   Clear
2:15 AM 48.6 °F 48.2 °F 99% 30.02 in 10.0 mi Calm Calm - N/A   Clear
2:35 AM 48.0 °F 47.7 °F 99% 30.02 in 10.0 mi Calm Calm - N/A   Clear
2:55 AM 46.4 °F 46.0 °F 99% 30.03 in 7.0 mi Calm Calm - N/A   Clear
3:15 AM 45.7 °F 45.5 °F 99% 30.03 in 7.0 mi Calm Calm - N/A   Clear
3:35 AM 46.8 °F 46.8 °F 100% 30.03 in 10.0 mi Calm Calm - N/A   Clear
3:55 AM 48.2 °F 48.2 °F 100% 30.03 in 10.0 mi SW 3.5 mph - N/A   Clear
4:15 AM 47.3 °F 46.6 °F 97% 30.04 in 10.0 mi Calm Calm - N/A   Clear
4:35 AM 47.7 °F 47.1 °F 98% 30.04 in 10.0 mi Calm Calm - N/A   Clear
4:55 AM 46.2 °F 45.7 °F 98% 30.05 in 10.0 mi Calm Calm - N/A   Clear
5:15 AM 46.2 °F 45.9 °F 99% 30.05 in 10.0 mi Calm Calm - N/A   Clear
5:35 AM 47.1 °F 46.6 °F 98% 30.06 in 10.0 mi SSW 3.5 mph - N/A   Clear
5:55 AM 48.6 °F 47.7 °F 97% 30.06 in 10.0 mi Calm Calm - N/A   Clear
6:15 AM 49.6 °F 48.6 °F 96% 30.07 in 10.0 mi Calm Calm - N/A   Clear
6:35 AM 50.7 °F 49.3 °F 95% 30.07 in 10.0 mi SSW 3.5 mph - N/A   Clear
6:55 AM 52.7 °F 51.1 °F 94% 30.07 in 10.0 mi Calm Calm - N/A   Clear
7:15 AM 54.5 °F 52.0 °F 91% 30.07 in 10.0 mi SW 3.5 mph - N/A   Clear
7:35 AM 56.5 °F 52.9 °F 88% 30.07 in 10.0 mi SSW 3.5 mph - N/A   Clear
7:55 AM 59.4 °F 55.0 °F 86% 30.08 in 10.0 mi SSW 3.5 mph - N/A   Clear
8:15 AM 61.9 °F 55.6 °F 80% 30.08 in 10.0 mi South 3.5 mph - N/A   Clear
8:35 AM 64.2 °F 56.3 °F 75% 30.08 in 10.0 mi South 3.5 mph - N/A   Clear
8:55 AM 65.7 °F 56.5 °F 72% 30.08 in 10.0 mi SSW 3.5 mph - N/A   Clear
9:15 AM 67.8 °F 57.7 °F 70% 30.08 in 10.0 mi Calm Calm - N/A   Clear
9:35 AM 69.3 °F 56.5 °F 64% 30.08 in 10.0 mi Calm Calm - N/A   Clear
9:55 AM 71.1 °F 56.7 °F 60% 30.08 in 10.0 mi Calm Calm - N/A   Clear
10:15 AM 72.5 °F 56.7 °F 57% 30.08 in 10.0 mi Calm Calm - N/A   Clear
10:35 AM 73.9 °F 58.1 °F 58% 30.08 in 10.0 mi South 3.5 mph - N/A   Clear
10:55 AM 75.7 °F 55.2 °F 49% 30.08 in 10.0 mi Calm Calm - N/A   Clear
11:15 AM 76.6 °F 55.0 °F 47% 30.08 in 10.0 mi Calm Calm - N/A   Clear
11:35 AM 77.4 °F 54.5 °F 45% 30.08 in 10.0 mi NE 3.5 mph - N/A   Clear
11:55 AM 77.5 °F 53.4 °F 43% 30.08 in 10.0 mi North 4.6 mph - N/A   Clear
12:15 PM 78.3 °F 54.0 °F 43% 30.08 in 10.0 mi East 4.6 mph - N/A   Clear
12:35 PM 79.5 °F 52.9 °F 40% 30.07 in 10.0 mi NE 5.8 mph - N/A   Clear
12:55 PM 79.9 °F 50.5 °F 36% 30.07 in 10.0 mi Calm Calm - N/A   Clear
1:15 PM 81.0 °F 50.0 °F 34% 30.07 in 10.0 mi NNE 4.6 mph - N/A   Clear
1:35 PM 81.0 °F 47.8 °F 31% 30.07 in 10.0 mi North 3.5 mph - N/A   Scattered Clouds
1:55 PM 81.0 °F 48.7 °F 32% 30.07 in 10.0 mi Calm Calm - N/A   Clear
2:15 PM 81.1 °F 50.0 °F 34% 30.07 in 10.0 mi SE 5.8 mph - N/A   Clear
2:35 PM 80.8 °F 49.6 °F 34% 30.07 in 10.0 mi NNE 3.5 mph - N/A   Clear
2:55 PM 82.6 °F 50.4 °F 33% 30.06 in 10.0 mi ENE 5.8 mph - N/A   Clear
3:15 PM 81.7 °F 50.0 °F 33% 30.06 in 10.0 mi NNW 3.5 mph - N/A   Clear
3:35 PM 82.0 °F 50.7 °F 34% 30.06 in 10.0 mi Calm Calm - N/A   Scattered Clouds
3:55 PM 82.6 °F 50.9 °F 33% 30.06 in 10.0 mi Calm Calm - N/A   Scattered Clouds
4:15 PM 81.5 °F 50.5 °F 34% 30.06 in 10.0 mi East 5.8 mph - N/A   Scattered Clouds
4:35 PM 82.4 °F 50.5 °F 33% 30.06 in 10.0 mi East 3.5 mph - N/A   Scattered Clouds
4:55 PM 81.9 °F 50.7 °F 34% 30.07 in 10.0 mi East 3.5 mph - N/A   Clear
5:15 PM 81.5 °F 51.3 °F 35% 30.07 in 10.0 mi ESE 5.8 mph - N/A   Mostly Cloudy
5:35 PM 79.0 °F 50.5 °F 37% 30.07 in 10.0 mi East 5.8 mph - N/A   Overcast
5:55 PM 78.8 °F 50.5 °F 37% 30.07 in 10.0 mi East 5.8 mph - N/A   Scattered Clouds
6:15 PM 79.7 °F 50.9 °F 37% 30.07 in 10.0 mi ESE 5.8 mph - N/A   Clear
6:35 PM 79.7 °F 51.4 °F 37% 30.07 in 10.0 mi East 4.6 mph - N/A   Clear
6:55 PM 78.6 °F 51.1 °F 38% 30.07 in 10.0 mi East 4.6 mph - N/A   Clear
7:15 PM 77.2 °F 54.1 °F 45% 30.07 in 10.0 mi East 4.6 mph - N/A   Clear
7:35 PM 76.1 °F 53.1 °F 45% 30.07 in 10.0 mi NE 3.5 mph - N/A   Clear
7:55 PM 74.3 °F 55.8 °F 52% 30.07 in 10.0 mi Calm Calm - N/A   Clear
8:15 PM 72.5 °F 56.3 °F 57% 30.07 in 10.0 mi Calm Calm - N/A   Clear
8:35 PM 68.7 °F 56.1 °F 64% 30.07 in 10.0 mi Calm Calm - N/A   Clear
8:55 PM 64.8 °F 56.8 °F 75% 30.08 in 10.0 mi Calm Calm - N/A   Clear
9:15 PM 63.5 °F 57.0 °F 79% 30.09 in 10.0 mi Calm Calm - N/A   Clear
9:35 PM 61.0 °F 57.0 °F 87% 30.09 in 10.0 mi Calm Calm - N/A   Clear
9:55 PM 59.4 °F 56.5 °F 90% 30.09 in 10.0 mi Calm Calm - N/A   Clear
10:15 PM 57.9 °F 55.6 °F 92% 30.10 in 10.0 mi Calm Calm - N/A   Clear
10:35 PM 58.6 °F 55.4 °F 89% 30.11 in 10.0 mi WSW 3.5 mph - N/A   Clear
10:55 PM 57.9 °F 54.9 °F 90% 30.11 in 10.0 mi Calm Calm - N/A   Clear
11:15 PM 57.4 °F 55.4 °F 93% 30.11 in 10.0 mi Calm Calm - N/A   Clear
11:35 PM 56.3 °F 54.1 °F 92% 30.11 in 10.0 mi Calm Calm - N/A   Clear
11:55 PM 55.2 °F 53.6 °F 94% 30.12 in 10.0 mi Calm Calm - N/A   Clear